Tracking 29606 objects as of 18-Sep-2024
HD Live streaming from Space Station
objects crossing your sky now

FENGYUN 1C DEB

Track FENGYUN 1C DEB now!
10-day predictions


NORAD ID: 30472
Int'l Code: 1999-025AGK
Perigee: 730.3 km
Apogee: 798.3 km
Inclination: 98.7 °
Period: 100.0 minutes
Semi major axis: 7135 km
RCS: 0.025 m2 (small)
Launch date: May 10, 1999
Source: People's Republic of China (PRC)
Launch site: Taiyaun Space Center, China (TSC)

Note: This is SATELLITE DEBRIS
Your satellite tracking list
Your tracking list is empty




NASA's NSSDC Master Catalog

Two Line Element Set (TLE):
1 30472U 99025AGK 24262.20204839  .00018709  00000-0  58111-2 0  9998
2 30472  98.6614 346.8065 0047673 358.7806  54.9185 14.40409323915634
Source of the keplerian elements: AFSPC